CW5404 Weather Reports


time (UTC)temp
C
wind
direction
speed
KPH
gust
KPH
rain 1hr
cm
rain 24hr
cm
rain mn
cm
humidity
%
barometer
mb
20260901131953 13 355 0.0 0.0 0.00 0.00 0.00 90 1011.2
20260901131453 12 355 0.0 0.0 0.00 0.00 0.00 90 1011.2
20260901130953 12 355 0.0 0.0 0.00 0.00 0.00 90 1011.2
20260901130453 12 355 0.0 0.0 0.00 0.00 0.00 90 1011.2
20260901125953 12 355 0.0 0.0 0.00 0.00 0.00 90 1011.2
20260901125453 12 355 0.0 0.0 0.00 0.00 0.00 91 1011.2
20260901124952 12 355 0.0 0.0 0.00 0.00 0.00 91 1011.2
20260901123453 12 355 0.0 0.0 0.00 0.00 0.00 91 1011.2
20260901122953 12 355 0.0 0.0 0.00 0.00 0.00 91 1011.2
20260901122452 12 355 0.0 0.0 0.00 0.00 0.00 91 1011.2
20260901121953 12 355 0.0 0.0 0.00 0.00 0.00 91 1011.2
20260901121453 12 355 0.0 0.0 0.00 0.00 0.00 91 1011.2
20260901120452 12 355 0.0 0.0 0.00 0.00 0.00 91 1011.2
20260901115952 12 355 0.0 0.0 0.00 0.00 0.00 91 1011.2
20260901115453 12 355 0.0 0.0 0.00 0.00 0.00 92 1011.2
20260901114952 12 355 0.0 0.0 0.00 0.00 0.00 92 1011.2
20260901114452 12 360 0.0 0.0 0.00 0.00 0.00 92 1011.2
20260901113952 11 360 0.0 0.0 0.00 0.00 0.00 92 1011.1
20260901112952 11 360 0.0 0.0 0.00 0.00 0.00 92 1011.1
20260901112452 11 360 0.0 0.0 0.00 0.00 0.00 92 1010.9
20260901111452 11 360 0.0 0.0 0.00 0.00 0.00 91 1010.9
20260901110452 11 360 0.0 0.0 0.00 0.00 0.00 91 1010.9
20260901105953 11 360 0.0 0.0 0.00 0.00 0.00 91 1010.9
20260901104952 11 360 0.0 0.0 0.00 0.00 0.00 90 1010.8
20260901104452 11 360 0.0 0.0 0.00 0.00 0.00 90 1010.8
20260901103952 11 360 0.0 0.0 0.00 0.00 0.00 90 1010.8
20260901102952 11 360 0.0 0.0 0.00 0.00 0.00 89 1010.8
20260901102452 11 360 0.0 0.0 0.00 0.00 0.00 89 1010.9
20260901101952 11 360 0.0 0.0 0.00 0.00 0.00 89 1010.9
20260901101452 11 360 0.0 0.0 0.00 0.00 0.00 89 1010.9
20260901100952 11 360 0.0 0.0 0.00 0.00 0.00 89 1010.8
20260901100452 11 360 0.0 0.0 0.00 0.00 0.00 89 1010.8
20260901095951 11 360 0.0 0.0 0.00 0.00 0.00 89 1010.8
20260901094952 12 360 0.0 0.0 0.00 0.00 0.00 89 1010.7
20260901093951 12 360 0.0 0.0 0.00 0.00 0.00 89 1010.9
20260901093451 12 360 0.0 0.0 0.00 0.00 0.00 89 1010.9
20260901092952 12 360 0.0 0.0 0.00 0.00 0.00 88 1010.9
20260901092451 12 360 0.0 0.0 0.00 0.00 0.00 88 1010.8
20260901091951 12 360 0.0 0.0 0.00 0.00 0.00 88 1010.8
20260901091451 12 360 0.0 0.0 0.00 0.00 0.00 88 1010.8
20260901090951 12 360 0.0 0.0 0.00 0.00 0.00 87 1010.6
20260901090451 12 360 0.0 0.0 0.00 0.00 0.00 87 1010.6
20260901085951 12 360 0.0 0.0 0.00 0.00 0.00 87 1010.6
20260901085451 12 360 0.0 0.0 0.00 0.00 0.00 87 1010.5
20260901084951 12 360 0.0 0.0 0.00 0.00 0.00 87 1010.5
20260901084451 12 360 0.0 0.0 0.00 0.00 0.00 87 1010.5
20260901083451 12 360 0.0 0.0 0.00 0.00 0.00 86 1010.4
20260901082952 13 360 0.0 0.0 0.00 0.00 0.00 86 1010.4
20260901082451 13 360 0.0 0.0 0.00 0.00 0.00 86 1010.5
20260901081951 13 360 0.0 0.0 0.00 0.00 0.00 86 1010.5
20260901081451 13 360 0.0 0.0 0.00 0.00 0.00 86 1010.5
20260901080951 13 360 0.0 0.0 0.00 0.00 0.00 85 1010.4
20260901080451 13 360 0.0 0.0 0.00 0.00 0.00 85 1010.4
20260901075951 13 360 0.0 0.0 0.00 0.00 0.00 85 1010.4
20260901074951 13 360 0.0 0.0 0.00 0.00 0.00 84 1010.3
20260901074451 13 360 0.0 0.0 0.00 0.00 0.00 84 1010.3
20260901073951 13 360 0.0 0.0 0.00 0.00 0.00 84 1010.2
20260901073451 14 360 0.0 0.0 0.00 0.00 0.00 84 1010.3
20260901072951 14 355 0.0 0.0 0.00 0.00 0.00 84 1010.3
20260901072451 14 274 0.0 0.0 0.00 0.00 0.00 83 1010.1
20260901071951 14 274 0.0 0.0 0.00 0.00 0.00 83 1010.1
20260901071451 14 274 0.0 0.0 0.00 0.00 0.00 82 1010.1
20260901070951 14 256 0.0 0.0 0.00 0.00 0.00 82 1010.0
20260901070450 14 256 0.0 0.0 0.00 0.00 0.00 81 1010.0
20260901065450 15 256 0.0 0.0 0.00 0.00 0.00 81 1009.7
20260901064950 15 256 0.0 0.0 0.00 0.00 0.00 80 1009.7
20260901064451 15 256 0.0 0.0 0.00 0.00 0.00 81 1009.7
20260901063951 15 256 0.0 0.0 0.00 0.00 0.00 80 1009.7
20260901062951 15 231 0.0 0.0 0.00 0.00 0.00 80 1009.7
20260901062450 15 308 0.0 0.0 0.00 0.00 0.00 79 1009.6
20260901061951 15 308 0.0 0.0 0.00 0.00 0.00 79 1009.6
20260901061450 15 311 0.0 0.0 0.00 0.00 0.00 79 1009.6
20260901060950 15 311 0.0 3.2 0.00 0.00 0.00 78 1009.5
20260901055951 15 227 0.0 4.8 0.00 0.00 0.00 78 1009.5
20260901055450 16 230 4.8 4.8 0.00 0.00 0.00 77 1009.4
20260901054950 16 270 0.0 4.8 0.00 0.00 0.00 77 1009.4
20260901054450 16 244 0.0 4.8 0.00 0.00 0.00 77 1009.4
20260901053950 16 217 1.6 8.0 0.00 0.00 0.00 76 1009.3
20260901053450 16 218 1.6 8.0 0.00 0.00 0.00 76 1009.3
20260901052950 16 234 0.0 6.4 0.00 0.00 0.00 76 1009.3
20260901052450 16 151 0.0 1.6 0.00 0.00 0.00 75 1009.1
20260901051950 16 243 0.0 4.8 0.00 0.00 0.00 74 1009.1
20260901051450 17 243 0.0 4.8 0.00 0.00 0.00 73 1009.1
20260901050950 17 241 0.0 3.2 0.00 0.00 0.00 73 1008.9
20260901050450 17 209 0.0 6.4 0.00 0.00 0.00 72 1008.9
20260901045950 17 209 0.0 6.4 0.00 0.00 0.00 71 1009.0
20260901045450 17 178 1.6 1.6 0.00 0.00 0.00 70 1008.9
20260901044950 17 178 0.0 4.8 0.00 0.00 0.00 68 1008.9
20260901044450 18 178 0.0 4.8 0.00 0.00 0.00 66 1008.9
20260901043950 18 179 1.6 4.8 0.00 0.00 0.00 65 1008.9
20260901043450 18 170 0.0 9.7 0.00 0.00 0.00 65 1008.9
20260901042950 18 175 4.8 9.7 0.00 0.00 0.00 66 1008.9
20260901042450 18 214 6.4 6.4 0.00 0.00 0.00 67 1008.6
20260901041949 18 198 0.0 6.4 0.00 0.00 0.00 68 1008.6
20260901041450 18 232 0.0 6.4 0.00 0.00 0.00 67 1008.6
20260901040950 18 360 3.2 6.4 0.00 0.00 0.00 67 1008.4
20260901040449 18 360 4.8 6.4 0.00 0.00 0.00 67 1008.4
20260901035950 19 200 0.0 0.0 0.00 0.00 0.00 66 1008.4
20260901035450 19 231 0.0 4.8 0.00 0.00 0.00 65 1008.1
20260901034951 19 234 0.0 4.8 0.00 0.00 0.00 65 1008.1
20260901034449 20 294 1.6 4.8 0.00 0.00 0.00 64 1008.1
20260901033949 20 360 1.6 4.8 0.00 0.00 0.00 63 1007.8
20260901033449 20 241 1.6 4.8 0.00 0.00 0.00 62 1007.8
20260901032949 20 221 3.2 3.2 0.00 0.00 0.00 61 1007.8
20260901032449 20 213 3.2 3.2 0.00 0.00 0.00 60 1007.6
20260901031949 21 360 0.0 3.2 0.00 0.00 0.00 59 1007.7
20260901030949 21 271 1.6 3.2 0.00 0.00 0.00 58 1007.6
20260901030449 21 248 3.2 3.2 0.00 0.00 0.00 57 1007.6
20260901024949 22 136 0.0 9.7 0.00 0.00 0.00 55 1007.4
20260901024449 22 214 0.0 9.7 0.00 0.00 0.00 55 1007.4
20260901023948 22 225 0.0 1.6 0.00 0.00 0.00 55 1007.3
20260901023449 22 201 0.0 0.0 0.00 0.00 0.00 55 1007.3
20260901022948 23 201 0.0 0.0 0.00 0.00 0.00 53 1007.3
20260901022449 23 201 0.0 0.0 0.00 0.00 0.00 52 1007.2
20260901021948 23 201 0.0 0.0 0.00 0.00 0.00 51 1007.2
20260901021448 23 199 0.0 1.6 0.00 0.00 0.00 50 1007.2
20260901020949 23 199 0.0 4.8 0.00 0.00 0.00 49 1007.0
20260901020448 23 194 0.0 6.4 0.00 0.00 0.00 49 1007.0
20260901015948 24 237 1.6 6.4 0.00 0.00 0.00 48 1007.0
20260901015448 24 9 0.0 4.8 0.00 0.00 0.00 48 1006.9
20260901014448 25 169 0.0 4.8 0.00 0.00 0.00 47 1006.9
20260901013949 25 160 1.6 1.6 0.00 0.00 0.00 46 1006.8
20260901013449 26 99 0.0 1.6 0.00 0.00 0.00 45 1006.8
20260901012948 26 90 0.0 6.4 0.00 0.00 0.00 44 1006.8
20260901012448 26 42 1.6 6.4 0.00 0.00 0.00 44 1006.8
20260901011948 26 58 1.6 3.2 0.00 0.00 0.00 42 1006.8
20260901011449 27 59 0.0 6.4 0.00 0.00 0.00 42 1006.8
20260901010948 27 61 1.6 6.4 0.00 0.00 0.00 40 1006.8
20260901010448 27 59 0.0 3.2 0.00 0.00 0.00 39 1006.8
20260901005948 27 15 0.0 3.2 0.00 0.00 0.00 38 1006.8
20260901004948 28 209 3.2 11.3 0.00 0.00 0.00 38 1006.8
20260901003948 29 177 6.4 8.0 0.00 0.00 0.00 36 1006.8
20260901003448 29 159 4.8 4.8 0.00 0.00 0.00 37 1006.8
20260901002948 29 186 3.2 4.8 0.00 0.00 0.00 37 1006.8
20260901002448 29 216 0.0 6.4 0.00 0.00 0.00 36 1006.7
20260901001948 29 216 0.0 6.4 0.00 0.00 0.00 35 1006.7
20260901001448 30 207 1.6 4.8 0.00 0.00 0.00 35 1006.7
20260901000948 30 200 3.2 6.4 0.00 0.00 0.00 36 1006.6
20260831235948 30 111 6.4 9.7 0.00 0.00 0.00 32 1006.6
20260831235448 30 153 4.8 4.8 0.00 0.00 0.00 32 1006.6
20260831234948 29 68 1.6 6.4 0.00 0.00 0.00 34 1006.6
20260831234448 29 29 3.2 8.0 0.00 0.00 0.00 34 1006.6
20260831233948 29 20 6.4 8.0 0.00 0.00 0.00 32 1006.6
20260831232448 29 211 0.0 11.3 0.00 0.00 0.00 32 1006.8
20260831231948 29 209 3.2 11.3 0.00 0.00 0.00 31 1006.8
20260831231448 29 82 0.0 11.3 0.00 0.00 0.00 31 1006.8
20260831230948 29 167 3.2 11.3 0.00 0.00 0.00 31 1006.9
20260831230448 30 220 8.0 8.0 0.00 0.00 0.00 30 1006.9
20260831225948 29 121 3.2 8.0 0.00 0.00 0.00 30 1006.9
20260831225448 29 193 0.0 9.7 0.00 0.00 0.00 30 1007.0
20260831224947 29 175 3.2 9.7 0.00 0.00 0.00 30 1007.0
20260831224447 29 189 4.8 9.7 0.00 0.00 0.00 30 1007.0
20260831223448 28 199 3.2 9.7 0.00 0.00 0.00 31 1007.1
20260831222447 28 138 3.2 8.0 0.00 0.00 0.00 31 1007.2
20260831221947 28 137 6.4 9.7 0.00 0.00 0.00 31 1007.2
20260831221447 28 99 1.6 9.7 0.00 0.00 0.00 32 1007.2
20260831220947 28 74 4.8 8.0 0.00 0.00 0.00 31 1007.5
20260831220447 28 152 6.4 8.0 0.00 0.00 0.00 32 1007.5
20260831215948 28 113 4.8 8.0 0.00 0.00 0.00 31 1007.5
20260831215447 28 214 3.2 8.0 0.00 0.00 0.00 32 1007.7
20260831214447 27 106 1.6 9.7 0.00 0.00 0.00 33 1007.7
20260831213947 27 53 4.8 9.7 0.00 0.00 0.00 33 1008.0
20260831213447 28 30 1.6 4.8 0.00 0.00 0.00 33 1008.0
20260831212947 27 55 0.0 8.0 0.00 0.00 0.00 34 1008.0
20260831212447 27 57 3.2 9.7 0.00 0.00 0.00 34 1007.9
20260831211947 27 89 1.6 9.7 0.00 0.00 0.00 34 1007.9
20260831211447 27 136 6.4 8.0 0.00 0.00 0.00 34 1007.9
20260831210947 27 105 1.6 8.0 0.00 0.00 0.00 34 1008.0
20260831210447 27 167 1.6 6.4 0.00 0.00 0.00 35 1008.0
20260831205947 27 105 0.0 6.4 0.00 0.00 0.00 35 1008.0
20260831205447 27 78 6.4 6.4 0.00 0.00 0.00 35 1008.4
20260831204947 26 207 1.6 6.4 0.00 0.00 0.00 36 1008.4
20260831204447 27 190 3.2 6.4 0.00 0.00 0.00 35 1008.4
20260831203947 27 20 3.2 8.0 0.00 0.00 0.00 36 1008.5
20260831202947 27 5 3.2 4.8 0.00 0.00 0.00 35 1008.5
20260831202447 26 334 1.6 3.2 0.00 0.00 0.00 36 1008.6
20260831201946 26 216 1.6 6.4 0.00 0.00 0.00 36 1008.6
20260831201446 26 140 1.6 8.0 0.00 0.00 0.00 39 1008.5
20260831194947 25 157 3.2 8.0 0.00 0.00 0.00 42 1009.0
20260831194446 25 92 1.6 11.3 0.00 0.00 0.00 41 1009.0
20260831193947 25 53 4.8 11.3 0.00 0.00 0.00 43 1009.2
20260831193446 25 107 4.8 9.7 0.00 0.00 0.00 42 1009.2
20260831192947 25 229 6.4 9.7 0.00 0.00 0.00 43 1009.2
20260831192446 25 119 1.6 8.0 0.00 0.00 0.00 43 1009.5
20260831191946 25 30 8.0 8.0 0.00 0.00 0.00 43 1009.5
20260831191447 25 144 1.6 6.4 0.00 0.00 0.00 44 1009.5
20260831190947 24 45 1.6 8.0 0.00 0.00 0.00 45 1009.7
20260831190446 23 137 1.6 8.0 0.00 0.00 0.00 45 1009.7
20260831185946 23 57 3.2 9.7 0.00 0.00 0.00 46 1009.7
20260831185447 23 115 6.4 9.7 0.00 0.00 0.00 46 1009.7
20260831184947 23 103 4.8 8.0 0.00 0.00 0.00 47 1009.7
20260831184447 23 178 1.6 8.0 0.00 0.00 0.00 47 1009.7
20260831183446 22 86 3.2 9.7 0.00 0.00 0.00 49 1010.0
20260831182946 22 58 4.8 8.0 0.00 0.00 0.00 48 1010.0
20260831182446 22 127 1.6 6.4 0.00 0.00 0.00 49 1010.1
20260831181946 22 231 3.2 6.4 0.00 0.00 0.00 49 1010.1
20260831181446 22 70 6.4 11.3 0.00 0.00 0.00 51 1010.1
20260831180946 22 355 1.6 11.3 0.00 0.00 0.00 51 1010.3
20260831180446 22 36 1.6 8.0 0.00 0.00 0.00 50 1010.3
20260831175946 22 59 1.6 6.4 0.00 0.00 0.00 50 1010.3
20260831175446 22 154 0.0 8.0 0.00 0.00 0.00 52 1010.4
20260831174946 21 55 1.6 8.0 0.00 0.00 0.00 54 1010.4
20260831174447 21 63 1.6 8.0 0.00 0.00 0.00 53 1010.4
20260831173946 21 143 3.2 4.8 0.00 0.00 0.00 55 1010.5
20260831173446 20 32 1.6 9.7 0.00 0.00 0.00 56 1010.5
20260831172946 20 44 3.2 12.9 0.00 0.00 0.00 56 1010.5
20260831171946 20 35 3.2 6.4 0.00 0.00 0.00 57 1010.6
20260831171447 20 338 1.6 6.4 0.00 0.00 0.00 57 1010.6
20260831170946 20 5 3.2 8.0 0.00 0.00 0.00 58 1010.9
20260831170446 20 53 3.2 8.0 0.00 0.00 0.00 59 1010.9
20260831165946 20 90 1.6 6.4 0.00 0.00 0.00 60 1010.9
20260831165446 19 116 3.2 8.0 0.00 0.00 0.00 61 1010.9
20260831164946 19 57 4.8 9.7 0.00 0.00 0.00 61 1010.9
20260831164446 19 24 1.6 9.7 0.00 0.00 0.00 61 1010.9
20260831163946 19 56 4.8 8.0 0.00 0.00 0.00 60 1011.1
20260831162946 19 56 3.2 8.0 0.00 0.00 0.00 61 1011.1
20260831162446 19 57 3.2 8.0 0.00 0.00 0.00 61 1011.1
20260831161946 19 83 8.0 8.0 0.00 0.00 0.00 62 1011.1
20260831161446 19 73 0.0 6.4 0.00 0.00 0.00 62 1011.1
20260831160946 18 49 1.6 4.8 0.00 0.00 0.00 63 1011.3
20260831155446 18 114 0.0 0.0 0.00 0.00 0.00 64 1011.3
20260831154946 18 107 0.0 0.0 0.00 0.00 0.00 65 1011.3
20260831154446 18 55 0.0 0.0 0.00 0.00 0.00 66 1011.3
20260831153946 17 61 0.0 0.0 0.00 0.00 0.00 67 1011.3
20260831153446 17 341 0.0 0.0 0.00 0.00 0.00 70 1011.3
20260831152946 16 340 0.0 0.0 0.00 0.00 0.00 74 1011.3
20260831152446 15 340 0.0 0.0 0.00 0.00 0.00 77 1011.4
20260831151946 15 340 0.0 0.0 0.00 0.00 0.00 79 1011.3
20260831151446 14 340 0.0 0.0 0.00 0.00 0.00 81 1011.3
20260831150946 14 340 0.0 0.0 0.00 0.00 0.00 84 1011.3
20260831145946 13 340 0.0 0.0 0.00 0.00 0.00 88 1011.3
20260831145446 12 360 0.0 0.0 0.00 0.00 0.00 89 1011.5
20260831144945 12 360 0.0 0.0 0.00 0.00 0.00 91 1011.5
20260831144445 12 360 0.0 0.0 0.00 0.00 0.00 92 1011.5
20260831143945 11 360 0.0 0.0 0.00 0.00 0.00 92 1011.3
20260831143445 11 360 0.0 0.0 0.00 0.00 0.00 92 1011.3
20260831142945 11 360 0.0 0.0 0.00 0.00 0.00 92 1011.3
20260831142445 11 360 0.0 0.0 0.00 0.00 0.00 92 1011.3
20260831141946 10 360 0.0 0.0 0.00 0.00 0.00 92 1011.3
20260831141446 10 340 0.0 0.0 0.00 0.00 0.00 92 1011.3
20260831140945 10 340 0.0 0.0 0.00 0.00 0.00 92 1011.3
20260831140445 10 340 0.0 0.0 0.00 0.00 0.00 91 1011.3
20260831135945 10 340 0.0 0.0 0.00 0.00 0.00 91 1011.3
20260831135445 10 340 0.0 0.0 0.00 0.00 0.00 91 1011.4
20260831134946 10 340 0.0 0.0 0.00 0.00 0.00 90 1011.4
20260831133945 10 340 0.0 0.0 0.00 0.00 0.00 90 1011.4
20260831133445 10 340 0.0 0.0 0.00 0.00 0.00 89 1011.4
20260831132946 10 340 0.0 0.0 0.00 0.00 0.00 89 1011.4
20260831132445 10 340 0.0 0.0 0.00 0.00 0.00 89 1011.5